User: anonymous   Login
Location: Natural Bridges National Monument
(37.6093°N, 109.9767°W)
Time: 13:29:41
(UTC-07:00)
Language:

Cosmos 1727 Rocket - Orbit

View from above orbital plane
View from above orbital plane
View from above satellite
View from above satellite

Ground track
Ground track

The orbit data is extracted from the following two-line orbital elements,

1 16511U 86008B   15025.88991271  .00000029  00000-0  14728-4 0  6617
2 16511 082.9472 147.5421 0024354 199.1147 276.8559 13.75777835456192
Epoch (UTC): 25 January 2015 21:21:28
Eccentricity: 0.0024354
inclination: 82.9472°
perigee height: 961 km
apogee height: 997 km
right ascension of ascending node: 147.5421°
argument of perigee: 199.1147°
revolutions per day: 13.75777835
mean anomaly at epoch: 276.8559°
orbit number at epoch: 45619

The dashed part of the orbit path shows where the satellite is in the earth's shadow,  

DLR